Wind_Speed
9 9 12 14 17 20 20 21 22 25 29 33 36 37 38 38 40 41 40 39 37 36 36 35 32 30 28 26 24 25 23 18 16 13 18 14 5 12 15 18 23 24 25 27 30
8 8 10 12 13 15 17 19 19 20 23 26 29 32 36 38 39 40 42 40 38 38 37 38 38 37 33 30 28 26 26 26 13 16 20 14 18 20 19 19 19 19 21 22 28
9 10 10 11 11 12 13 15 17 18 19 20 22 25 28 32 37 40 40 41 42 41 41 40 41 42 38 36 33 32 29 27 10 22 19 13 19 22 18 15 13 12 16 18 23
10 12 11 11 11 12 12 12 13 14 14 14 17 19 22 24 27 32 38 40 41 41 42 43 45 44 43 40 37 35 35 36 23 23 20 20 17 14 9 9 8 9 13 13 18
11 13 13 12 11 12 12 11 12 11 11 11 12 14 16 18 21 24 28 33 37 41 43 42 42 46 47 44 43 40 39 39 37 33 30 24 22 19 13 11 7 6 10 9 12
14 13 14 14 12 12 12 11 10 11 12 12 13 14 15 17 19 20 23 26 28 32 37 42 43 45 47 48 47 45 44 41 40 38 38 31 26 22 16 9 11 9 6 7 6
17 15 13 12 12 11 11 11 12 13 13 13 14 16 17 19 21 22 21 22 24 25 28 31 34 41 47 45 48 49 46 45 43 41 37 33 37 32 22 12 10 8 8 7 4
17 15 13 11 9 8 7 8 8 9 10 12 13 13 16 19 20 23 24 24 24 24 25 26 27 33 38 42 44 46 49 51 47 46 44 39 37 35 32 27 19 12 13 9 5
16 14 11 10 8 6 5 5 6 6 7 8 10 11 11 16 19 19 20 20 23 25 28 28 26 31 32 32 36 41 44 48 51 51 48 43 40 35 33 31 27 24 16 13 8
14 13 12 12 9 7 4 3 4 6 7 9 12 13 13 15 18 22 20 21 23 24 25 24 28 34 34 33 34 34 38 44 48 49 50 49 45 36 32 30 24 22 20 18 14
18 18 17 13 10 7 3 1 3 5 7 9 11 13 13 15 15 17 18 17 18 20 22 24 27 29 32 35 35 33 32 34 39 47 48 49 50 45 33 33 29 27 26 24 23
24 21 17 14 10 6 2 5 8 7 10 10 12 14 15 17 19 19 22 23 22 20 19 17 22 27 31 31 32 35 35 34 33 35 40 46 47 48 43 39 37 32 34 28 24
21 18 15 11 8 6 7 10 9 10 11 18 14 18 17 18 22 23 24 25 26 24 21 19 19 19 22 26 29 31 33 37 36 33 33 37 45 45 44 44 41 36 35 33 28
16 15 13 9 6 6 10 14 14 16 16 16 20 21 24 24 24 24 24 25 26 27 23 21 22 23 23 21 23 25 31 34 34 36 32 39 38 41 45 43 44 40 37 36 30
11 10 9 8 8 9 11 14 16 19 19 22 22 25 27 29 29 29 28 28 29 30 28 27 25 24 24 23 23 22 24 28 34 34 37 35 38 42 38 39 43 41 33 38 38
7 6 9 9 9 11 12 14 16 20 23 25 26 28 29 30 31 31 31 29 31 34 33 31 31 30 30 27 26 25 24 26 25 29 35 37 37 38 43 41 38 48 44 39 39
5 7 8 11 13 14 16 17 18 21 25 25 25 28 29 31 33 33 32 32 35 36 35 36 34 35 33 31 28 27 26 27 26 26 28 35 41 39 35 38 41 44 47 45 46
5 8 11 13 15 16 18 18 21 24 26 27 29 28 28 31 33 34 37 35 35 40 39 38 38 37 37 37 34 31 29 27 27 28 30 32 37 39 40 38 37 42 43 42 45
9 12 15 18 20 21 23 22 23 26 30 30 30 30 31 31 34 31 36 42 38 39 40 40 38 38 39 35 35 34 33 31 31 30 30 33 34 41 47 44 38 37 41 43 48
15 17 20 23 26 29 30 29 27 27 30 31 34 34 33 32 37 42 40 40 39 35 39 39 40 40 39 40 37 38 37 37 35 34 32 36 38 39 45 50 43 44 43 42 44
21 23 26 30 34 36 37 37 32 30 32 32 33 37 36 35 34 39 49 46 41 34 35 40 40 41 38 40 39 37 37 36 34 34 37 38 40 43 42 48 53 49 49 45 44
28 31 33 37 41 42 43 44 41 35 37 36 39 38 38 38 36 36 45 47 44 39 31 35 39 42 42 37 33 35 38 37 35 36 38 42 43 44 46 46 49 56 53 54 52
36 38 41 44 48 49 49 49 47 42 40 42 43 43 43 42 38 39 44 46 45 43 39 35 36 41 44 41 40 36 33 35 34 34 36 38 41 42 43 47 51 51 52 56 60
44 47 50 52 53 53 54 53 51 50 45 47 47 49 48 48 44 39 42 45 47 44 41 40 37 39 44 48 40 35 36 32 31 31 32 35 36 35 36 42 48 49 50 52 63
51 53 55 56 58 57 58 57 55 55 54 53 51 55 52 51 50 45 44 47 47 47 43 40 40 41 43 49 48 41 33 32 31 30 33 33 36 34 29 34 42 46 46 48 53
57 57 57 59 60 59 61 60 60 62 62 60 60 60 57 56 54 53 48 46 52 50 47 43 41 43 43 49 48 45 33 31 34 33 32 33 33 34 32 34 36 39 42 43 46
61 62 63 64 62 62 63 62 63 65 70 70 67 64 64 61 60 58 56 52 50 55 53 49 44 46 45 49 53 49 39 37 39 34 29 35 40 38 35 34 28 30 37 40 42
Wind_Direction
224 210 208 213 217 217 220 222 226 230 234 236 237 237 236 235 235 235 234 232 230 232 232 232 230 228 230 229 232 229 223 221 229 233 242 256 264 277 274 291 319 339 343 7 19
212 204 199 205 207 209 214 219 223 228 232 235 237 237 237 237 235 235 236 234 230 230 233 232 232 229 228 228 230 231 221 215 239 241 242 233 217 237 258 288 306 331 340 6 14
205 207 200 194 196 201 205 209 217 225 229 232 235 238 240 239 239 238 234 234 233 232 233 234 235 236 230 228 226 228 225 227 226 218 240 234 234 240 257 278 306 336 337 10 11
204 205 206 196 194 201 204 207 214 219 225 229 234 237 240 241 240 240 238 236 234 231 231 234 234 238 237 232 229 230 231 231 224 217 223 243 248 263 272 279 300 325 334 15 10
203 205 204 202 202 207 209 216 221 224 227 233 237 240 244 243 242 241 240 240 238 234 232 232 235 237 239 237 235 231 233 235 235 234 237 250 254 250 263 275 252 301 332 6 5
204 205 207 210 217 222 223 230 237 241 242 244 248 250 251 253 249 245 242 242 239 238 238 236 236 237 238 238 239 237 234 237 238 238 242 233 242 253 248 255 239 273 297 341 1
203 202 203 211 221 228 236 241 247 251 252 249 250 254 257 258 258 254 248 244 240 238 238 237 238 240 237 237 239 239 240 240 239 241 242 244 247 248 242 237 261 278 252 283 284
196 200 199 199 203 214 229 241 247 249 252 251 252 253 259 261 258 260 257 252 247 242 240 238 236 242 242 240 238 239 241 240 241 242 242 242 244 249 247 248 251 253 247 230 227
186 186 188 180 167 173 194 217 240 255 266 272 272 267 262 268 272 265 266 265 259 252 248 243 238 243 245 243 242 238 239 241 242 243 245 246 244 244 245 248 256 257 247 209 192
156 156 155 146 139 141 160 226 272 292 293 288 285 286 282 275 276 279 274 270 266 262 256 248 245 244 242 242 243 240 237 239 239 241 242 242 243 245 243 243 236 242 234 221 192
127 129 130 129 129 133 153 276 322 327 328 312 310 309 304 299 290 282 284 280 277 272 265 258 250 248 246 244 244 243 241 242 241 240 239 240 241 238 235 229 232 246 240 235 209
109 112 113 111 108 107 62 20 14 347 333 328 310 307 306 296 288 285 285 285 283 278 275 268 262 256 251 248 248 247 244 242 243 244 243 239 239 238 235 230 242 248 242 232 227
93 93 93 91 85 63 19 14 359 339 333 316 322 308 304 294 288 283 279 281 281 277 270 267 267 261 258 254 254 251 250 245 242 243 243 242 240 236 235 235 237 246 244 229 224
87 84 79 78 68 25 0 4 350 338 334 318 312 302 295 291 291 292 287 282 279 277 274 267 266 263 261 259 253 251 251 248 245 242 243 238 242 240 235 234 238 239 239 228 227
73 68 61 51 39 15 358 356 348 340 329 315 309 303 299 297 294 289 286 284 274 270 267 263 262 262 262 264 257 254 256 254 249 243 237 237 243 242 230 225 227 224 231 228 228
62 35 14 4 347 342 340 341 337 329 323 321 316 309 307 301 299 295 290 284 279 273 268 265 264 262 260 260 259 251 248 250 254 251 243 236 237 242 245 238 238 229 234 237 238
12 4 346 337 340 336 329 320 318 316 318 315 315 308 306 306 301 297 294 286 276 271 268 265 263 261 259 254 256 255 248 247 246 249 249 240 232 235 239 245 240 235 235 235 239
346 340 338 335 332 323 320 314 311 313 313 312 310 318 310 302 297 296 294 292 277 272 269 264 265 259 256 257 256 253 252 247 250 250 249 242 236 229 230 236 237 229 231 234 240
314 322 328 329 326 325 321 321 319 309 308 305 313 313 312 305 300 295 296 291 286 268 264 262 260 259 255 254 253 249 251 248 246 246 250 249 243 231 219 218 221 230 224 228 229
303 313 319 320 320 323 323 324 319 312 306 305 306 311 308 310 298 296 295 296 290 277 264 259 259 255 256 255 253 253 256 254 248 248 246 248 244 239 229 220 216 221 230 226 231
300 304 310 313 315 315 319 321 316 310 305 302 302 304 311 311 305 295 291 302 296 284 264 255 255 255 255 254 253 255 254 250 245 248 249 248 244 241 234 229 224 224 219 227 230
294 299 303 308 311 312 312 315 315 306 302 303 303 304 310 300 302 293 288 292 295 289 271 255 249 252 248 248 252 251 251 247 247 250 249 247 244 240 235 232 230 232 230 227 224
296 300 304 307 309 309 311 310 308 305 303 302 304 306 309 304 300 296 291 288 291 289 281 261 247 246 249 247 246 249 248 249 244 246 248 248 244 241 237 233 233 231 232 232 232
296 301 304 305 306 307 308 307 304 304 303 302 304 305 306 304 301 291 284 285 282 282 281 269 255 242 248 246 245 243 238 242 246 243 241 243 244 241 241 240 237 233 233 231 232
297 300 302 303 304 305 306 304 302 302 301 301 302 302 300 301 297 292 281 279 278 277 275 272 255 250 241 246 244 238 237 236 242 244 239 236 246 246 244 245 242 235 232 235 231
297 298 299 300 301 303 303 302 302 302 301 302 301 301 296 299 298 288 280 274 273 272 269 269 264 250 246 242 245 233 236 244 246 244 241 233 241 246 241 250 248 241 237 237 238
297 297 298 298 299 300 300 299 299 300 301 300 299 297 295 293 293 286 278 277 267 268 268 266 263 259 248 241 242 238 229 241 244 242 241 232 240 245 240 246 249 247 244 240 237
Height
10886 10887 10889 10890 10893 10896 10898 10900 10902 10904 10907 10910 10913 10916 10919 10922 10925 10928 10933 10939 10942 10943 10944 10947 10948 10950 10952 10954 10957 10957 10959 10960 10963 10964 10966 10963 10964 10963 10964 10963 10962 10959 10956 10951 10945
10884 10886 10887 10889 10891 10893 10895 10897 10899 10901 10903 10906 10908 10910 10912 10915 10919 10922 10927 10932 10936 10938 10940 10942 10942 10944 10947 10950 10952 10955 10955 10958 10959 10960 10960 10960 10960 10961 10962 10963 10962 10961 10957 10954 10949
10882 10884 10886 10888 10890 10892 10894 10895 10897 10899 10901 10903 10904 10906 10907 10909 10912 10916 10920 10924 10930 10933 10935 10936 10936 10936 10943 10945 10947 10951 10955 10956 10957 10956 10958 10960 10959 10959 10962 10962 10961 10962 10960 10957 10953
10881 10883 10885 10887 10889 10891 10893 10894 10896 10897 10899 10900 10902 10902 10903 10905 10907 10909 10913 10917 10922 10926 10929 10930 10930 10930 10935 10939 10944 10947 10951 10952 10954 10954 10955 10957 10958 10959 10961 10961 10961 10961 10961 10959 10957
10879 10881 10884 10886 10888 10890 10891 10893 10895 10896 10898 10899 10900 10900 10901 10902 10903 10905 10908 10911 10914 10919 10922 10923 10925 10925 10927 10933 10936 10941 10944 10946 10950 10951 10952 10953 10955 10956 10959 10959 10960 10961 10961 10960 10959
10877 10879 10882 10885 10887 10889 10890 10892 10893 10895 10896 10898 10898 10898 10899 10899 10899 10901 10903 10905 10908 10911 10913 10917 10919 10918 10922 10927 10930 10935 10937 10941 10944 10946 10948 10950 10952 10953 10956 10957 10958 10961 10960 10960 10960
10874 10877 10880 10883 10886 10888 10889 10891 10892 10893 10894 10895 10895 10895 10896 10895 10895 10896 10899 10901 10903 10905 10907 10910 10912 10910 10915 10919 10922 10927 10930 10935 10937 10940 10942 10944 10946 10948 10952 10954 10955 10959 10960 10960 10960
10872 10875 10879 10882 10885 10887 10888 10889 10890 10890 10891 10891 10892 10893 10893 10892 10892 10892 10894 10896 10898 10900 10902 10905 10906 10904 10908 10912 10916 10919 10922 10925 10929 10930 10933 10939 10941 10943 10948 10950 10952 10957 10958 10958 10959
10871 10874 10878 10881 10884 10886 10887 10888 10888 10889 10889 10890 10891 10891 10892 10890 10889 10889 10890 10891 10892 10895 10896 10899 10901 10900 10902 10905 10907 10912 10914 10916 10920 10922 10927 10932 10935 10938 10941 10945 10948 10953 10957 10956 10957
10871 10875 10878 10882 10885 10886 10887 10887 10888 10889 10889 10889 10889 10889 10889 10889 10887 10885 10887 10887 10888 10888 10890 10894 10895 10893 10895 10898 10899 10904 10906 10908 10911 10913 10917 10922 10928 10934 10938 10940 10942 10947 10952 10954 10955
10873 10876 10880 10883 10885 10886 10887 10887 10888 10888 10888 10888 10887 10887 10887 10886 10886 10884 10882 10883 10883 10883 10884 10887 10886 10887 10888 10892 10893 10896 10899 10901 10902 10905 10908 10914 10920 10928 10933 10936 10938 10940 10947 10951 10953
10877 10879 10882 10884 10885 10886 10887 10888 10888 10888 10887 10886 10886 10885 10885 10884 10882 10881 10879 10878 10878 10879 10880 10881 10879 10880 10882 10885 10887 10890 10893 10894 10896 10899 10901 10905 10911 10919 10926 10931 10933 10934 10937 10944 10949
10881 10883 10885 10886 10887 10888 10888 10888 10888 10887 10887 10883 10884 10882 10881 10879 10877 10876 10876 10874 10873 10873 10875 10876 10876 10876 10876 10879 10881 10883 10884 10886 10890 10894 10895 10898 10902 10909 10916 10923 10926 10928 10931 10937 10942
10885 10886 10887 10888 10888 10888 10888 10887 10887 10885 10884 10884 10880 10878 10875 10874 10873 10871 10870 10869 10867 10867 10869 10870 10871 10871 10872 10875 10875 10876 10875 10879 10883 10887 10891 10893 10896 10901 10907 10916 10919 10923 10924 10929 10934
10887 10887 10888 10888 10888 10888 10887 10886 10885 10883 10881 10878 10877 10873 10870 10868 10867 10866 10865 10863 10861 10861 10862 10863 10865 10865 10866 10868 10870 10872 10871 10873 10876 10879 10882 10886 10889 10893 10900 10907 10911 10915 10920 10922 10928
10888 10888 10888 10888 10887 10887 10885 10884 10883 10881 10878 10875 10872 10869 10866 10863 10861 10859 10858 10857 10854 10853 10854 10855 10856 10857 10858 10860 10862 10864 10866 10869 10871 10873 10875 10880 10882 10886 10891 10898 10903 10908 10912 10916 10920
10887 10887 10887 10887 10886 10885 10884 10882 10881 10877 10874 10871 10868 10864 10860 10857 10854 10852 10850 10849 10846 10844 10846 10846 10848 10849 10850 10852 10854 10856 10859 10862 10864 10866 10867 10869 10873 10880 10884 10887 10894 10899 10905 10909 10911
10885 10885 10885 10884 10883 10882 10880 10879 10877 10874 10869 10865 10861 10859 10855 10851 10847 10844 10841 10840 10837 10834 10834 10837 10838 10840 10842 10844 10846 10848 10852 10855 10856 10858 10858 10861 10865 10872 10876 10881 10885 10891 10896 10900 10903
10882 10882 10881 10880 10878 10876 10875 10874 10872 10868 10864 10859 10855 10852 10848 10844 10838 10836 10833 10829 10827 10825 10824 10825 10828 10829 10831 10834 10837 10839 10841 10846 10847 10851 10852 10852 10856 10862 10868 10872 10878 10885 10888 10892 10895
10878 10877 10876 10874 10872 10870 10868 10867 10865 10862 10857 10852 10846 10842 10839 10836 10830 10821 10820 10819 10816 10815 10815 10816 10816 10818 10821 10824 10827 10830 10833 10834 10838 10841 10844 10844 10847 10851 10858 10865 10871 10875 10879 10885 10889
10873 10871 10870 10867 10864 10862 10860 10858 10856 10854 10849 10845 10840 10833 10829 10827 10822 10817 10805 10804 10805 10804 10804 10803 10806 10808 10813 10812 10818 10821 10822 10823 10826 10830 10833 10835 10837 10840 10848 10853 10860 10863 10871 10877 10882
10866 10864 10862 10859 10855 10853 10849 10846 10845 10842 10838 10835 10830 10827 10822 10815 10812 10808 10799 10793 10792 10791 10793 10793 10797 10798 10800 10804 10808 10808 10812 10814 10816 10818 10821 10821 10824 10830 10836 10842 10847 10853 10863 10869 10874
10857 10855 10853 10849 10845 10840 10836 10833 10830 10828 10826 10821 10817 10813 10810 10806 10804 10797 10791 10785 10781 10779 10780 10782 10786 10787 10792 10794 10795 10799 10803 10806 10806 10809 10809 10809 10812 10818 10825 10831 10836 10843 10852 10859 10864
10848 10844 10841 10837 10832 10828 10823 10819 10814 10811 10812 10806 10803 10798 10795 10791 10789 10788 10783 10776 10773 10771 10770 10771 10774 10777 10780 10781 10785 10789 10791 10795 10798 10799 10800 10800 10802 10808 10815 10819 10824 10833 10840 10846 10851
10837 10833 10828 10824 10818 10814 10808 10804 10799 10795 10794 10792 10790 10783 10780 10777 10773 10772 10770 10764 10762 10760 10759 10760 10763 10764 10767 10768 10774 10779 10781 10785 10788 10790 10792 10793 10794 10799 10804 10807 10811 10821 10829 10835 10842
10823 10820 10817 10812 10806 10801 10794 10787 10781 10775 10771 10773 10766 10764 10761 10759 10756 10753 10753 10753 10746 10746 10747 10749 10751 10753 10757 10757 10759 10769 10772 10776 10777 10780 10785 10787 10786 10789 10794 10796 10802 10811 10818 10823 10829
10806 10803 10799 10795 10792 10789 10781 10776 10769 10759 10749 10747 10746 10743 10738 10740 10738 10734 10733 10733 10735 10730 10730 10734 10738 10740 10745 10746 10747 10756 10763 10762 10767 10773 10777 10780 10777 10778 10783 10787 10795 10802 10806 10811 10817